This demonstration page uses our WeatherBlox Daily Observations layout. Learn more.

Left ArrowRight Arrow

Hourly Observations for March 19, 2018

Temp ( °F °C ) Dew Point ( °F °C ) Humidity (%) Winds ( mph kmh ) Pressure ( in mb ) Visibility ( mi km ) Precip ( " mm )
12:15 am 00:15 Cloudy with Drizzle 37 2.6 35 1.7 94 94 ENE 10 17 29.85 1011 2 3 N/A
12:35 am 00:35 Cloudy with Light Rain 35 1.9 34 1 94 94 NE 12 19 29.83 1010 2 3 0.01 0.25
12:55 am 00:55 Cloudy with Light Snow 35 1.6 33 0.7 94 94 ENE 13 20 29.88 1012 2 3 0.04 1.02
1:15 am 01:15 Cloudy with Light Snow 34 1 32 0.1 94 94 ENE 8 13 29.88 1012 1 2 0.02 0.51
1:35 am 01:35 Cloudy with Snow 34 1 32 0.2 94 94 ENE 10 17 29.88 1012 1 2 0.03 0.76
1:55 am 01:55 Cloudy with Heavy Snow 34 1 32 0.1 94 94 NE 9 15 29.88 1012 0 0 0.04 1.02
2:15 am 02:15 Cloudy with Snow 34 1 32 0.1 94 94 NE 8 13 29.88 1012 0 0 0.07 1.78
2:35 am 02:35 Cloudy with Snow 34 1 32 0.1 94 94 NE 7 11 29.88 1012 1 1 0.13 3.30
2:55 am 02:55 Cloudy with Light Snow 34 1 32 0.1 94 94 N 6 9 29.88 1012 2 2 0.16 4.06
3:15 am 03:15 Cloudy with Light Snow 34 0.9 32 0.2 95 95 NNE 6 9 29.88 1012 1 2 0.03 0.76
3:35 am 03:35 Cloudy with Light Snow 34 1 32 0.2 94 94 NNE 6 9 29.88 1012 2 2 0.11 2.79
3:55 am 03:55 Cloudy with Snow 34 1 32 0.2 94 94 N 6 9 29.88 1012 1 1 0.12 3.05
4:15 am 04:15 Cloudy with Snow 34 1 33 0.3 95 95 N 7 11 29.88 1012 1 1 0.01 0.25
4:35 am 04:35 Cloudy with Light Snow 34 1 33 0.3 95 95 NNE 8 13 29.88 1012 1 2 0.05 1.27
4:55 am 04:55 Cloudy with Snow 34 1 32 0.2 94 94 N 7 11 29.88 1012 1 2 0.08 2.03
5:15 am 05:15 Cloudy with Light Snow 34 1 32 0.2 94 94 N 6 9 29.91 1013 1 2 0.01 0.25
5:35 am 05:35 Cloudy with Light Snow 34 1 32 0.2 94 94 N 8 13 29.91 1013 3 4 0.03 0.76
5:55 am 05:55 Cloudy with Light Snow 34 1.1 33 0.3 94 94 N 8 13 29.91 1013 4 6 0.04 1.02
6:15 am 06:15 Cloudy with Light Snow 34 1.1 32 0.2 94 94 N 9 15 29.91 1013 7 11 N/A
6:35 am 06:35 Cloudy with Light Snow 34 1.2 32 0.1 92 92 N 10 17 29.91 1013 7 11 N/A
6:55 am 06:55 Cloudy with Light Snow 34 1.1 32 undefined 92 92 N 9 15 29.91 1013 3 5 N/A
7:15 am 07:15 Cloudy with Light Snow 34 1.1 32 0.1 93 93 N 9 15 29.91 1013 3 5 0.01 0.25
7:35 am 07:35 Cloudy with Light Snow 34 1.1 32 0.1 93 93 N 8 13 29.94 1014 5 8 0.01 0.25
7:55 am 07:55 Cloudy with Light Rain 34 1.2 32 0.2 93 93 N 9 15 29.94 1014 10 16 0.01 0.25
8:15 am 08:15 Cloudy with Light Wintry Mix 35 1.5 32 0.2 91 91 N 9 15 29.97 1015 10 16 N/A
8:35 am 08:35 Cloudy 35 1.5 32 undefined 90 90 N 9 15 29.97 1015 10 16 N/A
8:55 am 08:55 Cloudy 35 1.5 32 undefined 90 90 N 9 15 29.97 1015 10 16 N/A
9:15 am 09:15 Cloudy with Light Snow 35 1.5 32 undefined 90 90 N 9 15 30.00 1016 5 8 N/A
9:35 am 09:35 Cloudy with Light Snow 34 1.3 32 undefined 91 91 N 12 19 30.00 1016 3 4 N/A
9:55 am 09:55 Cloudy with Mist and Fog 34 1.2 32 undefined 92 92 N 13 20 30.00 1016 2 3 0.01 0.25
10:15 am 10:15 Cloudy with Mist and Fog 34 1.2 32 undefined 92 92 N 10 17 30.00 1016 4 6 N/A
10:35 am 10:35 Cloudy with Light Snow 34 1.2 32 undefined 92 92 N 10 17 30.00 1016 3 5 N/A
10:55 am 10:55 Cloudy with Light Snow 34 1.3 32 0.1 92 92 N 10 17 30.03 1017 5 8 N/A
11:15 am 11:15 Cloudy 35 1.5 32 undefined 90 90 N 12 19 30.03 1017 10 16 N/A
11:35 am 11:35 Cloudy 35 1.7 32 undefined 89 89 N 15 24 30.03 1017 10 16 N/A
11:55 am 11:55 Cloudy 35 1.8 32 undefined 88 88 N 15 24 30.03 1017 10 16 N/A
12:15 pm 12:15 Cloudy 36 2 32 undefined 87 87 N 14 22 30.03 1017 10 16 N/A
12:35 pm 12:35 Cloudy 36 2.1 32 -0.1 86 86 N 17 28 30.06 1018 10 16 N/A
12:55 pm 12:55 Cloudy 36 2.1 32 -0.1 86 86 N 13 20 30.06 1018 10 16 N/A
1:15 pm 13:15 Cloudy 36 2.2 32 -0.2 84 84 N 16 26 30.06 1018 10 16 N/A
1:35 pm 13:35 Cloudy 36 2 32 -0.1 86 86 N 10 17 30.06 1018 10 16 N/A
1:55 pm 13:55 Cloudy 36 2 32 -0.1 86 86 N 13 20 30.06 1018 10 16 N/A
2:15 pm 14:15 Cloudy with Mist and Fog 36 2 32 -0.1 86 86 N 12 19 30.06 1018 5 8 N/A
2:35 pm 14:35 Cloudy 36 2.1 32 -0.1 86 86 N 12 19 30.06 1018 10 16 N/A
2:55 pm 14:55 Cloudy 36 2.2 32 -0.1 85 85 NNW 15 24 30.06 1018 10 16 N/A
3:15 pm 15:15 Cloudy 36 2.2 32 -0.1 85 85 N 16 26 30.06 1018 10 16 N/A
3:35 pm 15:35 Cloudy 36 2.2 32 -0.2 84 84 N 12 19 30.06 1018 10 16 N/A
3:55 pm 15:55 Cloudy 36 2.4 32 undefined 84 84 N 14 22 30.06 1018 10 16 N/A
4:15 pm 16:15 Cloudy 36 2.2 32 undefined 86 86 N 12 19 30.06 1018 10 16 N/A
4:35 pm 16:35 Cloudy 36 2.3 32 undefined 85 85 N 12 19 30.06 1018 10 16 N/A
4:55 pm 16:55 Cloudy with Light Rain 36 2.3 32 undefined 85 85 N 12 19 30.06 1018 10 16 N/A
5:15 pm 17:15 Cloudy 36 2.2 32 0.1 86 86 N 10 17 30.06 1018 10 16 N/A
5:35 pm 17:35 Cloudy with Light Rain 36 2.2 32 0.1 86 86 N 12 19 30.06 1018 10 16 N/A
5:55 pm 17:55 Cloudy with Drizzle 36 2.2 32 0.2 87 87 NNW 12 19 30.06 1018 10 16 N/A
6:15 pm 18:15 Cloudy with Light Rain 36 2 32 undefined 87 87 NNW 18 30 30.09 1019 10 16 N/A
6:35 pm 18:35 Cloudy with Light Rain 35 1.7 32 undefined 89 89 N 15 24 30.09 1019 10 16 N/A
6:55 pm 18:55 Cloudy with Light Rain 35 1.7 32 0.2 90 90 NNW 14 22 30.09 1019 10 16 N/A
7:15 pm 19:15 Cloudy with Rain 35 1.6 32 undefined 89 89 NNW 16 26 30.09 1019 10 16 N/A
7:35 pm 19:35 Cloudy with Drizzle 35 1.7 32 0.1 89 89 NNW 13 20 30.12 1020 10 16 N/A
7:55 pm 19:55 Cloudy with Light Rain 35 1.7 32 undefined 89 89 NNW 14 22 30.12 1020 10 16 N/A
8:15 pm 20:15 Cloudy with Light Rain 35 1.5 32 undefined 90 90 NNW 12 19 30.12 1020 10 16 N/A
8:35 pm 20:35 Cloudy with Light Snow 35 1.5 32 undefined 90 90 NNW 12 19 30.12 1020 10 16 N/A
8:55 pm 20:55 Cloudy 35 1.5 32 -0.2 89 89 NNW 13 20 30.12 1020 10 16 N/A
9:15 pm 21:15 Mostly Cloudy 34 1.3 31 -0.6 87 87 NNW 13 20 30.12 1020 10 16 N/A
9:35 pm 21:35 Mostly Cloudy 34 1.2 31 -0.5 89 89 NNW 10 17 30.12 1020 10 16 N/A
9:55 pm 21:55 Cloudy 34 1.3 31 -0.7 87 87 NNW 12 19 30.12 1020 10 16 N/A
10:15 pm 22:15 Cloudy 34 1.2 31 -0.7 87 87 NNW 10 17 30.12 1020 10 16 N/A
10:35 pm 22:35 Cloudy 34 1.2 30 -1.1 85 85 NNW 16 26 30.12 1020 10 16 N/A
10:55 pm 22:55 Cloudy 34 1 30 -1.1 86 86 NNW 8 13 30.12 1020 10 16 N/A
11:15 pm 23:15 Cloudy 34 1 30 -1 87 87 NNW 9 15 30.12 1020 10 16 N/A
11:35 pm 23:35 Cloudy 33 0.8 30 -1.2 87 87 NNW 10 17 30.15 1021 10 16 N/A
11:55 pm 23:55 Cloudy 33 0.7 30 -1.1 88 88 NNW 8 13 30.15 1021 10 16 N/A

Powered by AerisWeather